Regional Weather Roundup
Issued by NWS

Home | Current Version | Previous Version | Graphics & Text | Print | Product List | Glossary On
Versions: 1 2 3 4 5 6 7 8 9 10 11 12 13 14 15 16 17 18 19 20 21 22 23 24 25 26 27 28 29 30 31 32 33 34 35 36 37 38 39 40 41 42 43 44 45 46 47 48 49 50
000
ASUS43 KOAX 301910
RWRNE

WEATHER ROUNDUP FOR NEBRASKA
NATIONAL WEATHER SERVICE OMAHA NE
200 PM CDT SUN AUG 30 2015

NOTES: SATELLITE DATA IS BEING USED TO AUGMENT CLOUD COVER ABOVE
       12000 FEET.
       "FAIR" INDICATES FEW OR NO CLOUDS BELOW 12,000 FEET WITH NO
       SIGNIFICANT WEATHER AND/OR OBSTRUCTIONS TO VISIBILITY.

  * THESE STATIONS DO NOT REPORT WEATHER SUCH AS RAIN...SNOW OR FOG.

NEZ001>004-019>022-054>056-302000-
NEBRASKA PANHANDLE

CITY           SKY/WX    TMP DP  RH WIND       PRES   REMARKS
SCOTTSBLUFF    SUNNY     89  55  31 E12       29.93F
ALLIANCE       MOSUNNY   94  47  20 S14       29.93F HX  90
CHADRON        SUNNY     98  44  15 S7        29.83F HX  94
KIMBALL        SUNNY     93  36  13 W15G22    30.00F
SIDNEY         SUNNY     94  48  20 S14G20    30.00F HX  90
$$

NEZ057>060-069>072-079>082-302000-
SOUTHWEST NEBRASKA

CITY           SKY/WX    TMP DP  RH WIND       PRES   REMARKS
NORTH PLATTE   SUNNY     90  50  25 S14       29.97F
IMPERIAL       SUNNY     92  42  17 S18G28    29.99F
LEXINGTON      SUNNY     87  58  36 S13       29.99F
MCCOOK         SUNNY     94  43  17 S17       29.98F HX  90
OGALLALA       SUNNY     92  44  19 S21G26    29.97F
$$

NEZ005>010-023>029-035>040-094-302000-
NORTH CENTRAL NEBRASKA

CITY           SKY/WX    TMP DP  RH WIND       PRES   REMARKS
VALENTINE      CLOUDY    95  44  17 S22G36    29.87F HX  91
AINSWORTH      SUNNY     91  47  22 S24       29.92S
BROKEN BOW     SUNNY     88  59  37 S15G24    29.98F
O`NEILL        SUNNY     86  64  47 S12       29.95S
ORD            SUNNY     87  58  37 S14G20    29.95F
THEDFORD       SUNNY     92  49  22 S20G26    29.96S HAZE
$$

NEZ041-046>049-061>064-073>077-083>087-302000-
SOUTH CENTRAL NEBRASKA

CITY           SKY/WX    TMP DP  RH WIND       PRES   REMARKS
AURORA         SUNNY     75  66  73 S13       30.02F
HASTINGS       SUNNY     80  64  58 S10       30.02F
HEBRON         SUNNY     74  62  65 S8        30.05F
HOLDREGE       SUNNY     82  59  44 SE16      30.00F
KEARNEY *      SUNNY     82  64  54 SE15      30.00F
YORK           SUNNY     72  64  78 S12       30.04F
$$

NEZ011>018-030>034-042>045-302000-
NORTHEAST NEBRASKA

CITY           SKY/WX    TMP DP  RH WIND       PRES   REMARKS
NORFOLK        SUNNY     75  66  73 S13       29.99F
ALBION         SUNNY     76  65  69 S10G17    29.99F
BLAIR          CLOUDY    70  64  81 S13       30.05S
COLUMBUS *     MOSUNNY   72  63  73 S7        30.02F
FREMONT        CLOUDY    71  65  80 SE10      30.04F
TEKAMAH        CLOUDY    72  65  78 S9        30.03F
WAYNE          SUNNY     73  66  78 S14       30.01F
$$

NEZ050>053-065>068-078-088>093-302000-
SOUTHEAST NEBRASKA

CITY           SKY/WX    TMP DP  RH WIND       PRES   REMARKS
LINCOLN        CLOUDY    74  65  73 S13       30.05F
OMAHA EPPLEY   CLOUDY    72  64  76 S10       30.04F
BEATRICE       CLOUDY    72  64  75 S8        30.05F
FALLS CITY     MOSUNNY   77  69  76 CALM      30.04F
NEBRASKA CITY  CLOUDY    74  65  74 S7        30.06F
PLATTSMOUTH    CLOUDY    72  65  79 S8        30.06S
$$

NEZ044-045-051>053-067-302000-
OMAHA AREA

CITY           SKY/WX    TMP DP  RH WIND       PRES   REMARKS
OMAHA EPPLEY   CLOUDY    72  64  76 S10       30.04F
BLAIR          CLOUDY    70  64  81 S13       30.05S
FREMONT        CLOUDY    71  65  80 SE10      30.04F
MILLARD        CLOUDY    72  65  78 S7        30.05S
OFFUTT AFB     CLOUDY    73  65  75 S9        30.04F
PLATTSMOUTH    CLOUDY    72  65  79 S8        30.06S
WAHOO          CLOUDY    73  65  77 S10G16    30.04F
$$




USA.gov is the U.S. government's official web portal to all federal, state and local government web resources and services.